CAPE
202 198 191 116 82 66 0 4 20 0 1 1 4 159 70 19 54 33 49 94 89 56 59 79 65 91 84 204 194 112 57 13 5 53 293 338 227 228 149 125 94 44 22
165 162 213 99 46 6 2 1 0 0 7 2 3 138 46 26 94 75 80 70 21 31 14 25 18 107 186 293 249 112 87 65 17 26 88 235 328 60 102 89 47 8 10
127 89 90 56 19 13 0 0 0 0 0 15 8 19 28 61 146 56 55 75 25 8 3 15 24 148 188 200 203 158 82 41 18 52 182 66 67 44 97 34 30 4 7
254 148 100 45 53 10 0 0 0 0 12 10 20 58 75 136 171 167 150 49 42 12 17 35 20 117 117 127 69 56 36 28 13 20 4 50 29 7 23 8 2 14 24
112 211 190 167 127 0 1 2 12 14 8 45 112 114 74 20 49 115 91 49 27 21 50 78 59 66 42 34 46 25 13 2 45 2 11 20 16 2 5 0 4 0 11
149 234 152 148 39 14 3 3 18 21 8 30 63 27 8 0 12 104 55 21 21 25 32 56 43 39 34 37 35 22 33 0 2 3 4 11 6 0 3 3 0 0 0
263 438 289 75 24 19 12 2 8 28 21 82 35 17 1 0 38 119 47 21 13 2 21 35 34 20 8 23 10 23 37 8 4 7 0 2 0 1 5 0 0 2 0
258 549 163 1 0 7 7 0 11 17 20 25 12 9 0 0 48 93 39 19 21 35 71 22 18 2 2 12 6 21 32 25 19 19 5 5 3 2 4 11 8 11 0
218 392 149 9 0 6 8 1 5 8 4 70 9 0 0 0 30 58 25 18 15 18 33 9 7 5 0 2 5 11 7 12 17 4 9 8 3 5 9 7 0 0 0
179 235 75 1 1 38 13 8 6 14 22 14 38 4 0 0 35 64 6 34 10 12 10 5 23 4 5 11 0 5 0 1 0 3 0 4 3 4 5 3 0 0 0
181 114 77 19 58 0 0 24 66 116 74 70 44 0 0 0 0 41 20 5 5 0 5 0 7 8 6 12 3 1 7 4 3 3 9 14 12 1 0 0 0 0 0
109 86 82 49 17 0 14 37 123 103 154 117 34 0 0 0 4 20 4 0 0 1 4 12 4 9 16 5 2 0 4 5 0 0 3 1 0 0 0 0 0 0 0
136 113 108 148 101 76 69 179 108 121 76 22 0 0 0 0 2 3 5 0 0 0 1 19 0 12 14 0 2 4 6 1 0 0 0 0 0 0 0 0 17 18 14
155 101 107 224 193 192 162 125 79 64 18 7 0 0 0 0 3 1 1 0 0 0 4 5 7 15 6 1 5 9 0 0 0 0 0 0 0 0 0 0 9 24 56
153 112 189 246 185 144 141 131 45 46 16 14 4 0 0 0 0 0 0 0 0 0 1 6 6 3 4 0 0 0 0 0 0 0 0 0 0 0 0 0 0 10 24
140 173 217 224 242 156 38 98 65 90 117 151 36 0 0 0 2 5 10 0 0 0 0 0 0 1 0 0 0 0 0 0 0 0 0 0 0 0 0 7 11 48 43
142 180 256 276 226 231 262 0 0 6 1 236 238 42 16 0 15 13 15 1 0 0 0 0 0 0 0 0 0 0 0 0 0 0 0 0 0 0 0 18 62 52 36
119 170 242 234 251 331 286 61 11 3 7 277 392 246 74 3 13 28 16 0 0 0 0 0 0 0 0 0 0 0 0 0 0 0 0 0 0 0 1 3 0 0 5
157 176 162 280 365 367 267 245 101 41 0 0 34 190 152 94 0 55 50 22 0 0 0 0 0 0 0 6 0 0 0 0 0 0 24 0 3 25 56 13 5 10 18
83 190 209 163 288 335 263 281 271 90 52 54 4 202 262 175 0 48 74 69 8 0 0 0 0 3 0 0 0 0 0 0 0 0 0 0 1 7 21 54 24 0 6
0 100 260 224 197 171 150 214 263 293 161 140 118 111 172 145 7 5 58 102 111 125 74 0 0 0 0 10 20 2 0 0 0 0 0 0 0 10 10 24 51 33 39
106 0 56 40 6 0 0 17 38 171 214 165 154 155 144 74 29 0 0 5 10 21 56 71 12 0 0 38 52 39 10 0 3 3 0 0 0 0 0 0 1 0 0
147 42 17 3 0 0 0 0 0 0 18 133 148 160 153 104 31 1 0 0 0 0 1 8 9 2 0 8 60 84 64 59 40 18 17 23 22 16 2 0 0 0 0
257 121 57 34 33 34 3 0 0 0 0 0 46 24 58 78 26 0 0 0 0 0 0 0 0 0 0 0 0 7 55 26 0 0 0 0 0 0 0 0 0 0 0
531 396 246 58 11 10 5 13 7 1 0 0 0 0 0 0 15 0 0 0 0 0 0 0 0 0 0 0 0 0 0 0 0 0 0 0 0 0 0 0 0 0 0
334 379 400 463 413 105 39 45 62 81 64 17 18 4 0 0 0 0 0 0 0 0 0 0 0 0 0 0 0 0 0 0 0 0 0 0 0 0 2 0 0 0 0
CIN
-153 -137 -112 -140 -105 -72 -10 -47 -56 -0 -13 -36 -10 -13 -38 -55 -49 -53 -76 -44 -44 -50 -40 -36 -38 -62 -50 -43 -42 -38 -44 -62 -11 -19 -0 -0 -0 -0 -0 -0 -0 -0 -4
-119 -132 -92 -146 -117 -116 -59 -88 -0 -0 -16 -22 -28 -34 -63 -32 -64 -36 -32 -39 -10 -54 -29 -56 -60 -55 -50 -36 -46 -58 -42 -43 -24 -37 -1 -0 -0 -4 -0 -0 -13 -1 -9
-132 -186 -183 -145 -134 -91 -0 -0 -0 -0 -0 -31 -26 -51 -51 -51 -15 -29 -18 -12 -0 -4 -4 -18 -61 -31 -29 -48 -53 -66 -54 -37 -32 -32 -2 -1 -3 -9 -0 -6 -0 -4 -0
-86 -167 -150 -144 -80 -59 -0 -0 -0 -2 -18 -14 -31 -30 -50 -35 -15 -24 -12 -18 -0 -0 -18 -36 -57 -28 -29 -47 -50 -52 -57 -39 -41 -31 -10 -2 -17 -0 -7 -1 -0 -0 -0
-183 -147 -97 -55 -65 -62 -17 -9 -40 -41 -0 -22 -23 -23 -36 -16 -59 -41 -38 -20 -1 -20 -10 -16 -36 -38 -26 -34 -44 -35 -21 -3 -17 -8 -6 -0 -3 -0 -0 -0 -0 -0 -0
-180 -122 -91 -83 -121 -101 -13 -3 -7 -9 -3 -22 -32 -32 -8 -0 -82 -29 -27 -21 -13 -30 -24 -12 -17 -18 -14 -22 -21 -16 -20 -0 -0 -0 -0 -4 -0 -0 -0 -0 -0 -0 -0
-31 -85 -89 -98 -108 -19 -27 -7 -2 -24 -17 -30 -80 -12 -0 -0 -48 -22 -25 -23 -33 -36 -34 -34 -31 -3 -0 -6 -0 -1 -4 -7 -2 -0 -0 -0 -0 -0 -0 -0 -0 -0 -0
-102 -64 -106 -10 -0 -21 -4 -0 -10 -23 -33 -21 -17 -11 -0 -0 -29 -14 -21 -20 -13 -7 -0 -12 -18 -0 -10 -14 -12 -0 -0 -0 -0 -0 -1 -0 -0 -0 -0 -0 -0 -34 -0
-102 -58 -91 -100 -0 -31 -42 -23 -26 -23 -13 -31 -20 -0 -0 -0 -28 -20 -26 -20 -30 -17 -0 -13 -1 -2 -0 -3 -0 -0 -0 -0 -0 -0 -11 -0 -0 -0 -0 -0 -0 -0 -0
-120 -75 -89 -38 -32 -77 -64 -30 -40 -36 -40 -52 -23 -5 -0 -0 -22 -13 -53 -17 -40 -31 -2 -1 -0 -4 -2 -4 -0 -1 -0 -0 -2 -0 -0 -0 -2 -1 -6 -5 -0 -0 -0
-105 -81 -113 -177 -63 -0 -7 -24 -45 -34 -54 -45 -10 -0 -0 -0 -0 -18 -21 -24 -44 -0 -9 -0 -0 -0 -0 -0 -1 -0 -0 -1 -0 -0 -1 -1 -0 -0 -0 -0 -0 -0 -0
-124 -97 -99 -130 -155 -9 -59 -75 -30 -51 -39 -23 -2 -0 -0 -0 -26 -10 -4 -0 -0 -11 -12 -15 -20 -3 -0 -1 -1 -0 -0 -3 -0 -0 -0 -0 -0 -0 -0 -0 -0 -0 -0
-102 -76 -77 -150 -130 -53 -47 -40 -21 -41 -45 -47 -4 -0 -0 -0 -0 -3 -5 -0 -0 -0 -0 -9 -1 -10 -7 -0 -16 -1 -7 -45 -0 -0 -0 -0 -0 -0 -0 -0 -20 -37 -61
-109 -101 -103 -131 -91 -55 -58 -27 -46 -58 -71 -74 -0 -0 -0 -0 -81 -0 -0 -0 -0 -0 -0 -2 -9 -1 -4 -1 -20 -29 -0 -0 -0 -0 -0 -0 -0 -0 -0 -0 -41 -57 -42
-138 -176 -136 -104 -107 -103 -100 -67 -70 -94 -81 -89 -99 -0 -0 -0 -0 -0 -0 -0 -0 -0 -0 -0 -0 -0 -0 -0 -0 -0 -0 -0 -0 -0 -0 -0 -0 -0 -0 -0 -0 -34 -82
-173 -185 -148 -116 -88 -99 -188 -132 -113 -99 -93 -74 -69 -0 -0 -0 -132 -181 -176 -0 -0 -0 -0 -0 -0 -0 -0 -0 -0 -0 -0 -0 -0 -0 -0 -0 -0 -0 -0 -70 -110 -87 -96
-183 -170 -155 -125 -113 -95 -85 -0 -7 -99 -73 -104 -71 -100 -190 -0 -242 -241 -226 -195 -0 -0 -0 -0 -0 -0 -0 -0 -0 -0 -0 -0 -0 -0 -0 -0 -0 -0 -0 -90 -84 -116 -118
-206 -166 -180 -160 -119 -92 -98 -220 -55 -212 -198 -115 -67 -94 -170 -311 -295 -255 -256 -0 -0 -0 -0 -0 -0 -0 -0 -0 -0 -0 -0 -0 -0 -0 -0 -0 -0 -0 -21 -105 -0 -0 -21
-247 -189 -169 -172 -133 -113 -132 -149 -228 -259 -0 -0 -152 -189 -171 -235 -0 -265 -265 -304 -0 -0 -0 -0 -0 -0 -0 -238 -0 -0 -0 -0 -0 -0 -80 -0 -20 -19 -20 -35 -27 -36 -40
-285 -220 -185 -184 -170 -147 -159 -157 -160 -240 -265 -258 -88 -219 -170 -226 -0 -332 -298 -291 -153 -0 -0 -0 -0 -208 -0 -0 -0 -0 -0 -0 -0 -0 -0 -0 -19 -96 -78 -44 -52 -0 -70
-0 -250 -181 -181 -190 -197 -202 -195 -182 -172 -222 -230 -228 -221 -258 -283 -267 -243 -373 -331 -321 -295 -299 -10 -0 -0 -0 -244 -208 -48 -0 -0 -0 -0 -0 -0 -0 -177 -195 -142 -98 -90 -72
-75 -0 -250 -248 -180 -0 -0 -180 -274 -210 -190 -198 -206 -200 -207 -311 -400 -0 -0 -296 -415 -398 -344 -316 -361 -0 -0 -300 -247 -236 -74 -0 -62 -52 -0 -0 -0 -0 -0 -0 -121 -0 -0
-64 -90 -61 -72 -0 -0 -0 -0 -0 -0 -112 -194 -180 -177 -195 -225 -269 -69 -0 -0 -0 -0 -186 -444 -393 -226 -0 -124 -229 -204 -210 -212 -195 -181 -166 -141 -126 -126 -73 -0 -0 -0 -0
-61 -60 -93 -91 -96 -98 -34 -0 -0 -0 -0 -0 -231 -245 -211 -208 -238 -0 -0 -0 -0 -0 -0 -0 -0 -0 -0 -0 -0 -38 -231 -233 -0 -0 -0 -0 -0 -26 -0 -0 -0 -0 -0
-81 -68 -276 -114 -111 -103 -99 -94 -111 -6 -0 -0 -0 -0 -0 -0 -209 -0 -0 -0 -0 -0 -0 -0 -0 -0 -0 -0 -0 -0 -0 -0 -0 -0 -0 -0 -0 -0 -0 -0 -0 -0 -0
-100 -67 -189 -185 -195 -217 -99 -105 -97 -75 -82 -108 -85 -13 -0 -0 -0 -0 -0 -0 -0 -0 -0 -0 -0 -0 -0 -0 -0 -0 -0 -0 -0 -0 -0 -0 -0 -0 -11 -0 -0 -0 -0
Wind_Speed
21 20 23 22 nan nan nan nan nan nan nan nan nan 3 nan nan nan nan nan nan nan nan nan nan nan nan nan 7 10 8 nan nan nan nan 20 21 22 19 21 22 nan nan nan
19 20 21 nan nan nan nan nan nan nan nan nan nan 3 nan nan nan nan nan nan nan nan nan nan nan 7 8 8 10 11 nan nan nan nan nan 20 24 nan 22 nan nan nan nan
19 nan nan nan nan nan nan nan nan nan nan nan nan nan nan nan 7 nan nan nan nan nan nan nan nan 3 5 9 8 10 nan nan nan nan 15 nan nan nan nan nan nan nan nan
20 21 19 nan nan nan nan nan nan nan nan nan nan nan nan 3 3 5 7 nan nan nan nan nan nan 3 3 6 nan nan nan nan nan nan nan nan nan nan nan nan nan nan nan
15 15 15 15 16 nan nan nan nan nan nan nan 5 4 nan nan nan 7 nan nan nan nan nan nan nan nan nan nan nan nan nan nan nan nan nan nan nan nan nan nan nan nan nan
16 17 19 17 nan nan nan nan nan nan nan nan nan nan nan nan nan 6 nan nan nan nan nan nan nan nan nan nan nan nan nan nan nan nan nan nan nan nan nan nan nan nan nan
18 17 14 nan nan nan nan nan nan nan nan nan nan nan nan nan nan 6 nan nan nan nan nan nan nan nan nan nan nan nan nan nan nan nan nan nan nan nan nan nan nan nan nan
17 14 12 nan nan nan nan nan nan nan nan nan nan nan nan nan nan nan nan nan nan nan nan nan nan nan nan nan nan nan nan nan nan nan nan nan nan nan nan nan nan nan nan
16 11 12 nan nan nan nan nan nan nan nan nan nan nan nan nan nan nan nan nan nan nan nan nan nan nan nan nan nan nan nan nan nan nan nan nan nan nan nan nan nan nan nan
15 13 nan nan nan nan nan nan nan nan nan nan nan nan nan nan nan nan nan nan nan nan nan nan nan nan nan nan nan nan nan nan nan nan nan nan nan nan nan nan nan nan nan
15 15 nan nan nan nan nan nan nan 3 nan nan nan nan nan nan nan nan nan nan nan nan nan nan nan nan nan nan nan nan nan nan nan nan nan nan nan nan nan nan nan nan nan
15 nan nan nan nan nan nan nan 4 2 6 9 nan nan nan nan nan nan nan nan nan nan nan nan nan nan nan nan nan nan nan nan nan nan nan nan nan nan nan nan nan nan nan
13 12 10 8 9 nan nan 9 6 6 nan nan nan nan nan nan nan nan nan nan nan nan nan nan nan nan nan nan nan nan nan nan nan nan nan nan nan nan nan nan nan nan nan
13 12 9 8 7 10 13 14 nan nan nan nan nan nan nan nan nan nan nan nan nan nan nan nan nan nan nan nan nan nan nan nan nan nan nan nan nan nan nan nan nan nan nan
11 12 10 7 8 8 10 17 nan nan nan nan nan nan nan nan nan nan nan nan nan nan nan nan nan nan nan nan nan nan nan nan nan nan nan nan nan nan nan nan nan nan nan
8 8 8 8 9 9 nan nan nan nan 22 21 nan nan nan nan nan nan nan nan nan nan nan nan nan nan nan nan nan nan nan nan nan nan nan nan nan nan nan nan nan nan nan
7 7 5 6 8 8 13 nan nan nan nan 20 22 nan nan nan nan nan nan nan nan nan nan nan nan nan nan nan nan nan nan nan nan nan nan nan nan nan nan nan nan nan nan
5 7 4 3 6 7 9 nan nan nan nan 16 15 19 nan nan nan nan nan nan nan nan nan nan nan nan nan nan nan nan nan nan nan nan nan nan nan nan nan nan nan nan nan
4 1 1 0 1 3 6 8 7 nan nan nan nan 12 13 nan nan nan nan nan nan nan nan nan nan nan nan nan nan nan nan nan nan nan nan nan nan nan nan nan nan nan nan
nan 4 3 2 5 5 5 5 7 nan nan nan nan 5 4 6 nan nan nan nan nan nan nan nan nan nan nan nan nan nan nan nan nan nan nan nan nan nan nan nan nan nan nan
nan 9 5 6 5 5 5 6 6 7 6 7 5 5 8 8 nan nan nan 5 5 6 nan nan nan nan nan nan nan nan nan nan nan nan nan nan nan nan nan nan nan nan nan
7 nan nan nan nan nan nan nan nan 8 10 10 9 11 12 nan nan nan nan nan nan nan nan nan nan nan nan nan nan nan nan nan nan nan nan nan nan nan nan nan nan nan nan
14 nan nan nan nan nan nan nan nan nan nan 12 13 14 15 11 nan nan nan nan nan nan nan nan nan nan nan nan nan nan nan nan nan nan nan nan nan nan nan nan nan nan nan
31 25 nan nan nan nan nan nan nan nan nan nan nan nan nan nan nan nan nan nan nan nan nan nan nan nan nan nan nan nan nan nan nan nan nan nan nan nan nan nan nan nan nan
34 32 30 nan nan nan nan nan nan nan nan nan nan nan nan nan nan nan nan nan nan nan nan nan nan nan nan nan nan nan nan nan nan nan nan nan nan nan nan nan nan nan nan
39 37 35 32 32 28 nan nan nan nan nan nan nan nan nan nan nan nan nan nan nan nan nan nan nan nan nan nan nan nan nan nan nan nan nan nan nan nan nan nan nan nan nan
Wind_Direction
299 298 299 298 nan nan nan nan nan nan nan nan nan 348 nan nan nan nan nan nan nan nan nan nan nan nan nan 177 179 201 nan nan nan nan 189 189 199 201 211 230 nan nan nan
306 304 301 nan nan nan nan nan nan nan nan nan nan 10 nan nan nan nan nan nan nan nan nan nan nan 167 197 197 211 213 nan nan nan nan nan 188 202 nan 207 nan nan nan nan
308 nan nan nan nan nan nan nan nan nan nan nan nan nan nan nan 13 nan nan nan nan nan nan nan nan 30 176 178 194 183 nan nan nan nan 196 nan nan nan nan nan nan nan nan
311 314 309 nan nan nan nan nan nan nan nan nan nan nan nan 341 7 48 36 nan nan nan nan nan nan 87 313 216 nan nan nan nan nan nan nan nan nan nan nan nan nan nan nan
329 320 321 316 308 nan nan nan nan nan nan nan 262 268 nan nan nan 89 nan nan nan nan nan nan nan nan nan nan nan nan nan nan nan nan nan nan nan nan nan nan nan nan nan
319 318 323 319 nan nan nan nan nan nan nan nan nan nan nan nan nan 125 nan nan nan nan nan nan nan nan nan nan nan nan nan nan nan nan nan nan nan nan nan nan nan nan nan
320 331 333 nan nan nan nan nan nan nan nan nan nan nan nan nan nan 124 nan nan nan nan nan nan nan nan nan nan nan nan nan nan nan nan nan nan nan nan nan nan nan nan nan
331 352 6 nan nan nan nan nan nan nan nan nan nan nan nan nan nan nan nan nan nan nan nan nan nan nan nan nan nan nan nan nan nan nan nan nan nan nan nan nan nan nan nan
343 354 8 nan nan nan nan nan nan nan nan nan nan nan nan nan nan nan nan nan nan nan nan nan nan nan nan nan nan nan nan nan nan nan nan nan nan nan nan nan nan nan nan
346 353 nan nan nan nan nan nan nan nan nan nan nan nan nan nan nan nan nan nan nan nan nan nan nan nan nan nan nan nan nan nan nan nan nan nan nan nan nan nan nan nan nan
346 346 nan nan nan nan nan nan nan 68 nan nan nan nan nan nan nan nan nan nan nan nan nan nan nan nan nan nan nan nan nan nan nan nan nan nan nan nan nan nan nan nan nan
352 nan nan nan nan nan nan nan 41 56 148 159 nan nan nan nan nan nan nan nan nan nan nan nan nan nan nan nan nan nan nan nan nan nan nan nan nan nan nan nan nan nan nan
349 350 1 10 31 nan nan 58 76 94 nan nan nan nan nan nan nan nan nan nan nan nan nan nan nan nan nan nan nan nan nan nan nan nan nan nan nan nan nan nan nan nan nan
358 355 359 8 33 50 61 53 nan nan nan nan nan nan nan nan nan nan nan nan nan nan nan nan nan nan nan nan nan nan nan nan nan nan nan nan nan nan nan nan nan nan nan
352 3 9 38 41 61 84 72 nan nan nan nan nan nan nan nan nan nan nan nan nan nan nan nan nan nan nan nan nan nan nan nan nan nan nan nan nan nan nan nan nan nan nan
342 9 32 41 69 85 nan nan nan nan 98 99 nan nan nan nan nan nan nan nan nan nan nan nan nan nan nan nan nan nan nan nan nan nan nan nan nan nan nan nan nan nan nan
342 348 36 55 67 92 118 nan nan nan nan 106 87 nan nan nan nan nan nan nan nan nan nan nan nan nan nan nan nan nan nan nan nan nan nan nan nan nan nan nan nan nan nan
345 330 353 50 81 106 119 nan nan nan nan 98 130 113 nan nan nan nan nan nan nan nan nan nan nan nan nan nan nan nan nan nan nan nan nan nan nan nan nan nan nan nan nan
282 333 282 198 140 120 140 153 135 nan nan nan nan 134 139 nan nan nan nan nan nan nan nan nan nan nan nan nan nan nan nan nan nan nan nan nan nan nan nan nan nan nan nan
nan 316 289 255 219 216 200 191 182 nan nan nan nan 75 158 166 nan nan nan nan nan nan nan nan nan nan nan nan nan nan nan nan nan nan nan nan nan nan nan nan nan nan nan
nan 226 264 228 225 223 231 229 229 234 223 213 201 248 325 340 nan nan nan 42 32 36 nan nan nan nan nan nan nan nan nan nan nan nan nan nan nan nan nan nan nan nan nan
228 nan nan nan nan nan nan nan nan 247 246 259 251 255 282 nan nan nan nan nan nan nan nan nan nan nan nan nan nan nan nan nan nan nan nan nan nan nan nan nan nan nan nan
239 nan nan nan nan nan nan nan nan nan nan 265 261 262 270 280 nan nan nan nan nan nan nan nan nan nan nan nan nan nan nan nan nan nan nan nan nan nan nan nan nan nan nan
228 230 nan nan nan nan nan nan nan nan nan nan nan nan nan nan nan nan nan nan nan nan nan nan nan nan nan nan nan nan nan nan nan nan nan nan nan nan nan nan nan nan nan
223 230 230 nan nan nan nan nan nan nan nan nan nan nan nan nan nan nan nan nan nan nan nan nan nan nan nan nan nan nan nan nan nan nan nan nan nan nan nan nan nan nan nan
221 225 232 235 236 237 nan nan nan nan nan nan nan nan nan nan nan nan nan nan nan nan nan nan nan nan nan nan nan nan nan nan nan nan nan nan nan nan nan nan nan nan nan